Met observations

Date (UTC) Wind direction m/s kts. Vis. * Weather * Cloud * Temperature (°C) Dew point (°C) Air pressure (Hp)
05-07 13:50 5 10 VIS 10 km FBL DZ FEW 1600ft BKN 2000ft BKN 2500ft 10.6 6.0 996.1
05-07 13:40 8 15 VIS 10 km FBL DZ FEW 1600ft BKN 2000ft BKN 2500ft 10.6 6.5 995.9
05-07 13:30 7 14 VIS 10 km FBL DZ FEW 1600ft BKN 2000ft BKN 2500ft 10.6 6.5 995.7
05-07 13:20 7 13 VIS 10 km FBL DZ FEW 1600ft BKN 2000ft BKN 2500ft 10.9 7.1 995.5
05-07 13:10 6 12 VIS 10 km FBL DZ FEW 1600ft BKN 2000ft BKN 2500ft 10.9 6.8 995.4
05-07 13:00 7 14 VIS 10 km FBL DZ FEW 1600ft BKN 2000ft BKN 2500ft 10.9 6.8 995.3
05-07 12:49 7 13 VIS 10 km FBL DZ FEW 1600ft BKN 2000ft BKN 2500ft 10.9 7.1 995.1
05-07 12:39 7 14 VIS 10 km FBL DZ FEW 1600ft BKN 2000ft BKN 2500ft 10.9 7.0 995.0
05-07 12:29 7 13 VIS 10 km FBL DZ FEW 1600ft BKN 2000ft BKN 2500ft 10.8 6.9 994.9
05-07 12:19 6 11 VIS 10 km FBL DZ FEW 1600ft BKN 2000ft BKN 2500ft 10.9 7.6 994.7
05-07 12:09 5 10 VIS 10 km FBL DZ FEW 1600ft BKN 2000ft BKN 2500ft 10.8 8.2 994.6
05-07 11:59 5 10 VIS 10 km FBL DZ FEW 1600ft BKN 2000ft BKN 2500ft 10.9 8.3 994.5
05-07 11:49 5 10 VIS 10 km FBL SHRA FEW 800ft BKN 1200ft BKN 1700ft 10.9 8.3 994.3
05-07 11:39 3 06 VIS 10 km FBL SHRA FEW 800ft BKN 1200ft BKN 1700ft 10.8 8.4 994.3
05-07 11:29 3 05 VIS 10 km FBL SHRA FEW 800ft BKN 1200ft BKN 1700ft 10.6 8.4 994.2
05-07 11:19 2 04 VIS 10 km FBL SHRA FEW 800ft BKN 1200ft BKN 1700ft 10.5 8.3 994.1
05-07 11:09 4 07 VIS 10 km FBL SHRA FEW 800ft BKN 1200ft BKN 1700ft 10.5 8.2 994.0
05-07 10:59 3 05 VIS 10 km FBL SHRA FEW 800ft BKN 1200ft BKN 1700ft 10.8 8.3 993.8
05-07 10:49 3 06 VIS 10 km FBL SHRA FEW 800ft BKN 1200ft BKN 1700ft 10.6 8.3 993.8
05-07 10:39 3 05 VIS 10 km FBL SHRA FEW 800ft BKN 1200ft BKN 1700ft 10.6 8.6 993.5
05-07 10:29 3 05 VIS 10 km FBL SHRA FEW 800ft BKN 1200ft BKN 1700ft 10.4 8.3 993.4
05-07 10:19 2 04 VIS 10 km FBL SHRA FEW 800ft BKN 1200ft BKN 1700ft 10.5 8.2 993.4
05-07 10:09 2 03 VIS 10 km FBL SHRA FEW 800ft BKN 1200ft BKN 1700ft 10.4 8.3 993.3
05-07 09:59 3 05 VIS 10 km FBL SHRA FEW 800ft BKN 1200ft BKN 1700ft 10.3 8.2 993.2
05-07 09:49 3 05 VIS 10 km FBL SHRA FEW 800ft BKN 1200ft BKN 1700ft 10.3 8.2 993.2
05-07 09:39 3 06 VIS 10 km FBL SHRA FEW 800ft BKN 1200ft BKN 1700ft 10.3 8.2 993.1
05-07 09:29 4 07 VIS 10 km FBL SHRA FEW 800ft BKN 1200ft BKN 1700ft 10.2 8.2 993.1
05-07 09:19 3 06 VIS 10 km FBL SHRA FEW 800ft BKN 1200ft BKN 1700ft 10.1 7.7 993.0
05-07 09:09 5 09 VIS 10 km FBL SHRA FEW 800ft BKN 1200ft BKN 1700ft 10.2 7.8 992.9
05-07 08:59 4 08 VIS 10 km FBL SHRA FEW 800ft BKN 1200ft BKN 1700ft 10.2 8.0 992.9
05-07 08:49 3 05 VIS 10 km FBL SHRA FEW 800ft BKN 1200ft BKN 1700ft 10.2 8.0 992.8
05-07 08:39 3 06 VIS 10 km FBL SHRA FEW 800ft BKN 1200ft BKN 1700ft 10.3 8.0 992.8
05-07 08:29 5 09 VIS 10 km FBL SHRA FEW 800ft BKN 1200ft BKN 1700ft 10.2 7.9 992.7
05-07 08:19 6 11 VIS 10 km FBL SHRA FEW 800ft BKN 1200ft BKN 1700ft 10.3 7.8 992.6
05-07 08:09 4 07 VIS 10 km FBL SHRA FEW 800ft BKN 1200ft BKN 1700ft 10.6 7.8 992.5
05-07 07:59 3 05 VIS 10 km FBL SHRA FEW 800ft BKN 1200ft BKN 1700ft 10.6 7.8 992.5
05-07 07:49 2 04 VIS 10 km FBL SHRA FEW 800ft BKN 1200ft BKN 1700ft 10.4 8.2 992.5
05-07 07:39 2 04 VIS 10 km FBL SHRA FEW 800ft BKN 1200ft BKN 1700ft 10.2 8.1 992.4
05-07 07:29 3 05 VIS 10 km FBL SHRA FEW 800ft BKN 1200ft BKN 1700ft 10.1 8.5 992.3
05-07 07:19 2 04 VIS 10 km FBL SHRA FEW 800ft BKN 1200ft BKN 1700ft 10.0 8.4 992.2
05-07 07:09 3 05 VIS 10 km FBL SHRA FEW 800ft BKN 1200ft BKN 1700ft 10.0 8.3 992.2
05-07 06:59 3 06 VIS 10 km FBL SHRA FEW 800ft BKN 1200ft BKN 1700ft 10.0 8.2 992.2
05-07 06:49 4 07 VIS 10 km FBL SHRA FEW 800ft BKN 1200ft BKN 1700ft 9.8 8.3 992.1
05-07 06:39 4 08 VIS 10 km FBL SHRA FEW 800ft BKN 1200ft BKN 1700ft 9.6 8.4 992.1
05-07 06:29 4 07 VIS 10 km FBL SHRA FEW 800ft BKN 1200ft BKN 1700ft 9.5 8.4 992.1
05-07 06:19 3 06 VIS 10 km FBL SHRA FEW 800ft BKN 1200ft BKN 1700ft 9.3 8.2 992.0
05-07 06:09 3 06 VIS 10 km FBL SHRA FEW 800ft BKN 1200ft BKN 1700ft 9.4 8.2 992.0
05-07 05:59 3 06 VIS 10 km FBL SHRA FEW 800ft BKN 1200ft BKN 1700ft 9.4 8.2 991.9
05-07 05:49 4 07 VIS 10 km FBL SHRA FEW 800ft BKN 1200ft BKN 1700ft 9.4 8.1 992.0
05-07 05:39 5 09 VIS 10 km FBL SHRA FEW 800ft BKN 1200ft BKN 1700ft 9.3 8.2 991.9
05-07 05:29 5 09 VIS 10 km FBL SHRA FEW 800ft BKN 1200ft BKN 1700ft 9.3 8.1 991.9
05-07 05:19 4 08 VIS 10 km FBL SHRA FEW 800ft BKN 1200ft BKN 1700ft 9.3 8.2 991.9
05-07 05:09 5 10 VIS 10 km FBL SHRA FEW 800ft BKN 1200ft BKN 1700ft 9.3 8.1 991.9
05-07 04:59 5 09 VIS 10 km FBL SHRA FEW 800ft BKN 1200ft BKN 1700ft 9.2 8.0 991.8
05-07 04:49 4 08 VIS 10 km FBL SHRA FEW 800ft BKN 1200ft BKN 1700ft 9.2 8.0 991.9
05-07 04:39 4 08 VIS 10 km FBL SHRA FEW 800ft BKN 1200ft BKN 1700ft 9.2 8.0 991.9
05-07 04:29 3 06 VIS 10 km FBL SHRA FEW 800ft BKN 1200ft BKN 1700ft 9.2 8.2 992.0
05-07 04:19 4 07 VIS 10 km FBL SHRA FEW 800ft BKN 1200ft BKN 1700ft 9.1 8.3 992.0
05-07 04:09 4 07 VIS 10 km FBL SHRA FEW 800ft BKN 1200ft BKN 1700ft 9.0 8.3 992.1
05-07 03:59 5 09 VIS 10 km FBL SHRA FEW 800ft BKN 1200ft BKN 1700ft 9.0 8.2 992.1
05-07 03:49 5 10 VIS 10 km FBL SHRA FEW 800ft BKN 1200ft BKN 1700ft 9.0 8.2 992.1
05-07 03:39 6 12 VIS 10 km FBL SHRA FEW 800ft BKN 1200ft BKN 1700ft 9.2 8.3 992.2
05-07 03:29 6 12 VIS 10 km FBL SHRA FEW 800ft BKN 1200ft BKN 1700ft 9.3 8.3 992.2
05-07 03:19 7 13 VIS 10 km FBL SHRA FEW 800ft BKN 1200ft BKN 1700ft 9.3 8.2 992.2
05-07 03:09 6 12 VIS 10 km FBL SHRA FEW 800ft BKN 1200ft BKN 1700ft 9.3 8.3 992.2
05-07 02:59 6 11 VIS 10 km FBL SHRA FEW 800ft BKN 1200ft BKN 1700ft 9.2 8.1 992.2
05-07 02:49 6 11 VIS 10 km FBL SHRA FEW 800ft BKN 1200ft BKN 1700ft 9.3 8.1 992.2
05-07 02:39 7 13 VIS 10 km FBL SHRA FEW 800ft BKN 1200ft BKN 1700ft 9.3 8.2 992.2
05-07 02:29 6 12 VIS 10 km FBL SHRA FEW 800ft BKN 1200ft BKN 1700ft 9.2 8.2 992.3
05-07 02:19 5 10 VIS 10 km FBL SHRA FEW 800ft BKN 1200ft BKN 1700ft 9.1 8.1 992.4
05-07 02:09 6 11 VIS 10 km FBL SHRA FEW 800ft BKN 1200ft BKN 1700ft 9.1 8.0 992.4
05-07 01:59 6 12 VIS 10 km FBL SHRA FEW 800ft BKN 1200ft BKN 1700ft 9.0 8.0 992.4
05-07 01:49 6 12 VIS 10 km FBL SHRA FEW 800ft BKN 1200ft BKN 1700ft 9.0 7.9 992.4
05-07 01:39 6 12 VIS 10 km FBL SHRA FEW 800ft BKN 1200ft BKN 1700ft 9.0 7.9 992.5
05-07 01:29 6 11 VIS 10 km FBL SHRA FEW 800ft BKN 1200ft BKN 1700ft 9.0 7.9 992.7
05-07 01:19 5 10 VIS 10 km FBL SHRA FEW 800ft BKN 1200ft BKN 1700ft 9.0 7.9 992.8
05-07 01:09 6 12 VIS 10 km FBL SHRA FEW 800ft BKN 1200ft BKN 1700ft 9.1 8.0 992.9
05-07 00:59 6 12 VIS 10 km FBL SHRA FEW 800ft BKN 1200ft BKN 1700ft 9.1 7.9 993.0
05-07 00:49 7 13 VIS 10 km FBL SHRA FEW 800ft BKN 1200ft BKN 1700ft 9.1 8.1 993.0
05-07 00:39 8 15 VIS 10 km FBL SHRA FEW 800ft BKN 1200ft BKN 1700ft 9.0 8.2 993.1
05-07 00:29 7 14 VIS 10 km FBL SHRA FEW 800ft BKN 1200ft BKN 1700ft 9.0 8.2 993.1
05-07 00:19 7 13 VIS 10 km FBL SHRA FEW 800ft BKN 1200ft BKN 1700ft 9.0 8.2 993.0
05-07 00:09 7 14 VIS 10 km FBL SHRA FEW 800ft BKN 1200ft BKN 1700ft 9.0 8.3 993.1
04-07 23:59 8 15 VIS 10 km FBL SHRA FEW 800ft BKN 1200ft BKN 1700ft 9.0 8.3 993.2
04-07 23:49 6 12 VIS 10 km FBL SHRA FEW 800ft BKN 1200ft BKN 1700ft 9.0 8.4 993.4
04-07 23:39 7 13 VIS 10 km FBL SHRA FEW 800ft BKN 1200ft BKN 1700ft 9.0 8.4 993.4
04-07 23:29 7 13 VIS 10 km FBL SHRA FEW 800ft BKN 1200ft BKN 1700ft 8.9 8.5 993.5
04-07 23:19 6 11 VIS 10 km FBL SHRA FEW 800ft BKN 1200ft BKN 1700ft 8.9 8.5 993.5
04-07 23:09 5 10 VIS 10 km FBL SHRA FEW 800ft BKN 1200ft BKN 1700ft 8.8 8.5 993.7
04-07 22:59 6 12 VIS 10 km FBL SHRA FEW 800ft BKN 1200ft BKN 1700ft 9.0 8.7 993.7
04-07 22:49 6 11 VIS 10 km FBL SHRA FEW 800ft BKN 1200ft BKN 1700ft 8.9 8.6 993.7
04-07 22:39 6 12 VIS 10 km FBL SHRA FEW 800ft BKN 1200ft BKN 1700ft 8.9 8.6 993.7
04-07 22:29 6 11 VIS 10 km FBL SHRA FEW 800ft BKN 1200ft BKN 1700ft 8.9 8.6 993.7
04-07 22:19 7 13 VIS 10 km FBL SHRA FEW 800ft BKN 1200ft BKN 1700ft 8.8 8.5 993.7
04-07 22:09 5 10 VIS 10 km FBL SHRA FEW 800ft BKN 1200ft BKN 1700ft 9.2 9.0 993.7
04-07 21:59 6 11 VIS 10 km FBL SHRA FEW 800ft BKN 1200ft BKN 1700ft 9.4 9.2 993.8
04-07 21:49 6 12 VIS 10 km FBL SHRA FEW 800ft BKN 1200ft BKN 1700ft 9.5 9.2 993.9
04-07 21:39 7 13 VIS 10 km FBL SHRA FEW 800ft BKN 1200ft BKN 1700ft 9.5 9.3 994.0
04-07 21:29 7 14 VIS 10 km FBL SHRA FEW 800ft BKN 1200ft BKN 1700ft 9.5 9.2 994.1
04-07 21:19 7 13 VIS 10 km FBL SHRA FEW 800ft BKN 1200ft BKN 1700ft 9.5 9.2 994.1
04-07 21:09 6 12 VIS 10 km FBL SHRA FEW 800ft BKN 1200ft BKN 1700ft 9.8 9.4 994.2
04-07 20:59 7 14 VIS 10 km FBL SHRA FEW 800ft BKN 1200ft BKN 1700ft 9.8 9.5 994.0
04-07 20:49 6 11 VIS 10 km FBL SHRA FEW 800ft BKN 1200ft BKN 1700ft 9.9 9.6 994.1
04-07 20:39 6 11 VIS 10 km FBL SHRA FEW 800ft BKN 1200ft BKN 1700ft 10.1 9.8 994.1
04-07 20:29 6 12 VIS 10 km FBL SHRA FEW 800ft BKN 1200ft BKN 1700ft 10.2 9.8 994.1
04-07 20:19 6 12 VIS 10 km FBL SHRA FEW 800ft BKN 1200ft BKN 1700ft 10.3 10.0 994.2
04-07 20:09 5 10 VIS 10 km FBL SHRA FEW 800ft BKN 1200ft BKN 1700ft 10.3 10.0 994.2
04-07 19:59 5 09 VIS 10 km FBL SHRA FEW 800ft BKN 1200ft BKN 1700ft 10.2 9.9 994.3
04-07 19:49 6 11 VIS 10 km FBL SHRA FEW 800ft BKN 1200ft BKN 1700ft 10.3 9.9 994.4
04-07 19:39 6 12 VIS 10 km FBL SHRA FEW 800ft BKN 1200ft BKN 1700ft 10.5 10.0 994.4
04-07 19:29 6 11 VIS 10 km FBL SHRA FEW 800ft BKN 1200ft BKN 1700ft 10.5 9.9 994.5
04-07 19:19 6 12 VIS 10 km FBL SHRA FEW 800ft BKN 1200ft BKN 1700ft 10.6 9.9 994.8
04-07 19:09 6 12 VIS 10 km FBL SHRA FEW 800ft BKN 1200ft BKN 1700ft 10.6 9.8 994.8
04-07 18:59 6 12 VIS 10 km FBL SHRA FEW 800ft BKN 1200ft BKN 1700ft 10.7 9.4 994.8
04-07 18:49 6 12 VIS 10 km FBL SHRA FEW 800ft BKN 1200ft BKN 1700ft 11.3 9.3 994.9
04-07 18:39 7 14 VIS 10 km FBL SHRA FEW 800ft BKN 1200ft BKN 1700ft 11.4 9.1 995.0
04-07 18:29 7 13 VIS 10 km FBL SHRA FEW 800ft BKN 1200ft BKN 2000ft 11.2 8.8 995.0
04-07 18:19 6 12 VIS 10 km FBL SHRA BKN 1500ft BKN 2000ft 11.1 8.6 995.1
04-07 18:09 7 14 VIS 10 km FBL SHRA BKN 1500ft BKN 2000ft 11.3 8.3 995.1
04-07 17:59 10 19 VIS 10 km FBL SHRA BKN 1500ft BKN 2000ft 11.4 8.4 995.3
04-07 17:49 6 12 VIS 10 km BKN 3000ft 11.5 8.3 995.4
04-07 17:39 7 14 VIS 10 km BKN 3000ft 11.4 8.5 995.6
04-07 17:29 8 16 VIS 10 km BKN 3000ft 11.2 8.5 995.7
04-07 17:19 8 16 VIS 10 km BKN 3000ft 10.9 8.5 995.9
04-07 17:09 9 17 VIS 10 km BKN 3000ft 10.9 8.2 996.0
04-07 16:59 8 15 VIS 10 km BKN 3000ft 10.7 8.2 996.2
04-07 16:49 8 15 VIS 10 km BKN 3000ft 10.7 8.2 996.3
04-07 16:39 8 16 VIS 10 km BKN 3000ft 10.6 8.1 996.4
04-07 16:29 8 16 VIS 10 km BKN 3000ft 10.5 8.1 996.5
04-07 16:19 9 18 VIS 10 km BKN 3000ft 10.3 8.0 996.6
04-07 16:09 8 15 VIS 10 km BKN 3000ft 10.4 7.8 996.7
04-07 15:59 7 14 VIS 10 km BKN 3000ft 10.5 7.5 997.0
04-07 15:49 10 20 VIS 10 km BKN 3000ft 10.6 7.6 997.0
04-07 15:39 9 18 VIS 10 km BKN 3000ft 10.4 7.7 997.2
04-07 15:29 9 18 VIS 10 km BKN 3000ft 10.0 7.6 997.3
04-07 15:19 9 17 VIS 10 km BKN 3000ft 9.6 7.4 997.5
04-07 15:09 10 19 VIS 10 km BKN 3000ft 9.8 7.2 997.4
04-07 14:59 7 14 VIS 10 km BKN 3000ft 9.5 7.1 997.6
04-07 14:49 9 18 VIS 10 km BKN 3000ft 9.8 6.9 997.6
04-07 14:39 9 18 VIS 10 km BKN 3000ft 10.2 7.2 997.6
04-07 14:29 12 24 VIS 10 km BKN 3000ft 9.7 6.9 997.6
04-07 14:19 12 23 VIS 10 km BKN 3000ft 9.5 6.5 997.5
04-07 14:09 13 25 VIS 10 km BKN 3000ft 9.3 6.5 997.7

Met data is updated every half hour and is for information only.
* Visibility, weather and cloud values are updated during the airport’s service hours only.
Flight planning documentation is available on opmet.dmi.dk.
For meteorological abbreviations, click here